Palm Springs, CA

4:19 PM PST on December 10, 2016 (GMT -0800)
Palm Springs International

Weather History for KPSP - December, 2012

Change the Weather History Date:

Tuesday, December 25, 2012

  Actual Average Record
Temperature  
Mean Temperature 53 °F 55 °F  
Max Temperature 61 °F 66 °F 86 °F (1985)
Min Temperature 45 °F 44 °F 23 °F (1953)
Degree Days  
Heating Degree Days 12 10  
Month to date heating degree days 180 233  
Since 1 July heating degree days 215 329  
Cooling Degree Days 0 0  
Month to date cooling degree days 21 0  
Year to date cooling degree days 4726 4137  
Growing Degree Days 3 (Base 50)    
Moisture  
Dew Point 20 °F    
Average Humidity 38    
Maximum Humidity 61    
Minimum Humidity 15    
Precipitation  
Precipitation 0.00 in 0.04 in 4.02 in (1940)
Month to date precipitation 0.19 0.61  
Year to date precipitation 2.01 5.47  
Since 1 July precipitation 1.22  
Snow  
Snow 0.00 in - - ()
Month to date snowfall 0.0  
Year to date snowfall 0.0  
Snow Depth 0.00 in    
Sea Level Pressure  
Sea Level Pressure 30.08 in    
Wind  
Wind Speed 3 mph (NW)    
Max Wind Speed 12 mph    
Max Gust Speed 15 mph    
Visibility 10 miles    
Events      
T = Trace of Precipitation, MM = Missing Value Source: NWS Daily Summary

Daily Weather History Graph

Daily Weather History Graph

Search for Another Location

Airport or City:

Trip Planner

Search our weather history database for the weather conditions in past years. The results will help you decide how hot, cold, wet, or windy it might be!

Date:

Astronomy

Dec. 25, 2012 Rise Set
Actual Time 6:49 AM PST 4:43 PM PST
Civil Twilight 6:21 AM PST 5:11 PM PST
Nautical Twilight 5:50 AM PST 5:42 PM PST
Astronomical Twilight 5:19 AM PST 6:13 PM PST
Moon 2:53 PM PST (12/25) 4:27 AM PST (12/25)
Length of Visible Light 10h 50m
Length of Day
9h 54m
Waxing Gibbous, 94% of the Moon is Illuminated
Dec 25
Waxing Gibbous
Dec 28
Full
Jan 4
Last Quarter
Jan 11
New
Jan 18
First Quarter

Hourly Weather History & Observations

Time (PST) Temp. Windchill Dew Point Humidity Pressure Visibility Wind Dir Wind Speed Gust Speed Precip Events Conditions
12:53 AM 54.0 °F - 37.9 °F 55% 30.08 in 10.0 mi WNW 6.9 mph - N/A   Clear
1:53 AM 57.9 °F - 21.0 °F 24% 30.08 in 10.0 mi WNW 8.1 mph - N/A   Clear
2:53 AM 57.9 °F - 12.0 °F 16% 30.08 in 10.0 mi WNW 6.9 mph - N/A   Clear
3:53 AM 57.0 °F - 10.0 °F 15% 30.08 in 10.0 mi WNW 3.5 mph - N/A   Clear
4:53 AM 53.1 °F - 24.1 °F 32% 30.10 in 10.0 mi West 4.6 mph - N/A   Clear
5:53 AM 52.0 °F - 26.1 °F 37% 30.11 in 10.0 mi WSW 6.9 mph - N/A   Clear
6:53 AM 46.9 °F - 21.9 °F 37% 30.13 in 10.0 mi Calm Calm - N/A   Clear
7:53 AM 48.9 °F - 14.0 °F 25% 30.15 in 10.0 mi NNW 3.5 mph - N/A   Overcast
8:53 AM 51.1 °F - 19.9 °F 29% 30.17 in 10.0 mi Calm Calm - N/A   Clear
9:53 AM 54.0 °F - 19.0 °F 25% 30.18 in 10.0 mi Calm Calm - N/A   Clear
10:53 AM 57.0 °F - 21.0 °F 25% 30.15 in 10.0 mi Calm Calm - N/A   Clear
11:53 AM 59.0 °F - 18.0 °F 20% 30.12 in 10.0 mi Calm Calm - N/A   Mostly Cloudy
12:53 PM 60.1 °F - 18.0 °F 20% 30.09 in 10.0 mi East 3.5 mph - N/A   Overcast
1:53 PM 60.1 °F - 14.0 °F 16% 30.07 in 10.0 mi Calm Calm - N/A   Clear
2:53 PM 60.1 °F - 12.9 °F 16% 30.05 in 10.0 mi Calm Calm - N/A   Clear
3:53 PM 59.0 °F - 15.1 °F 18% 30.03 in 10.0 mi ESE 3.5 mph - N/A   Clear
4:53 PM 57.9 °F - 16.0 °F 19% 30.04 in 10.0 mi Calm Calm - N/A   Clear
5:53 PM 55.0 °F - 23.0 °F 29% 30.04 in 10.0 mi Calm Calm - N/A   Mostly Cloudy
6:53 PM 54.0 °F - 25.0 °F 33% 30.04 in 10.0 mi Calm Calm - N/A   Clear
7:53 PM 52.0 °F - 24.1 °F 34% 30.04 in 10.0 mi NNW 5.8 mph - N/A   Clear
8:53 PM 50.0 °F - 21.0 °F 32% 30.02 in 10.0 mi NW 4.6 mph - N/A   Mostly Cloudy
9:53 PM 46.9 °F - 21.0 °F 36% 30.03 in 10.0 mi NNW 5.8 mph - N/A   Mostly Cloudy
10:53 PM 46.0 °F 43.1 °F 21.0 °F 37% 30.02 in 10.0 mi NNW 5.8 mph - N/A   Clear
11:53 PM 45.0 °F 43.5 °F 21.0 °F 39% 30.00 in 10.0 mi NNW 3.5 mph - N/A   Clear